Time,TemperatureF,DewpointF,PressureIn,WindDirection,WindDirectionDegrees,WindSpeedMPH,WindSpeedGustMPH,Humidity,HourlyPrecipIn,Conditions,Clouds,dailyrainin,SolarRadiationWatts/m^2,SoftwareType,DateUTC
2013-09-06 08:02:00,55.0,43.0,-100.00,East,84,1.0,3.0,64,-99.99,,,0.00,65.000000,,2013-09-06 15:02:00,
2013-09-06 08:22:00,55.0,43.0,-100.00,East,84,1.0,3.0,64,-99.99,,,0.00,65.000000,,2013-09-06 15:22:00,
2013-09-06 08:34:00,55.0,43.0,-100.00,East,84,1.0,3.0,64,-99.99,,,0.00,65.000000,,2013-09-06 15:34:00,
2013-09-06 08:43:00,55.0,43.0,-100.00,East,84,1.0,3.0,64,-99.99,,,0.00,65.000000,,2013-09-06 15:43:00,
2013-09-06 08:53:00,55.0,43.0,-100.00,East,84,1.0,3.0,64,-99.99,,,0.00,65.000000,,2013-09-06 15:53:00,
2013-09-06 09:02:00,64.0,45.0,-100.00,SSE,166,0.0,3.0,51,0.00,,,0.00,290.000000,,2013-09-06 16:02:00,
2013-09-06 09:43:00,64.0,45.0,-100.00,SSE,166,0.0,3.0,51,0.00,,,0.00,290.000000,,2013-09-06 16:43:00,
2013-09-06 09:53:00,64.0,45.0,-100.00,SSE,166,0.0,3.0,51,0.00,,,0.00,290.000000,,2013-09-06 16:53:00,
2013-09-06 10:24:00,72.0,44.0,-100.00,WSW,238,3.0,10.0,37,-99.99,,,0.00,311.000000,,2013-09-06 17:24:00,
2013-09-06 10:34:00,72.0,44.0,-100.00,WSW,238,3.0,10.0,37,-99.99,,,0.00,311.000000,,2013-09-06 17:34:00,
2013-09-06 10:43:00,72.0,44.0,-100.00,WSW,238,3.0,10.0,37,-99.99,,,0.00,311.000000,,2013-09-06 17:43:00,
2013-09-06 10:53:00,72.0,44.0,-100.00,WSW,238,3.0,10.0,37,-99.99,,,0.00,311.000000,,2013-09-06 17:53:00,
2013-09-06 11:01:00,72.0,44.0,-100.00,WSW,238,3.0,10.0,37,-99.99,,,0.00,311.000000,,2013-09-06 18:01:00,
2013-09-06 11:02:00,77.0,40.0,-100.00,SW,223,4.0,13.0,27,0.00,,,0.00,101.000000,,2013-09-06 18:02:00,
2013-09-06 11:42:00,77.0,40.0,-100.00,SW,223,4.0,13.0,27,0.00,,,0.00,101.000000,,2013-09-06 18:42:00,
2013-09-06 11:52:00,77.0,40.0,-100.00,SW,223,4.0,13.0,27,0.00,,,0.00,101.000000,,2013-09-06 18:52:00,
2013-09-06 12:02:00,82.0,42.0,-100.00,WSW,249,5.0,14.0,24,0.00,,,0.00,704.000000,,2013-09-06 19:02:00,
2013-09-06 12:43:00,82.0,42.0,-100.00,WSW,249,5.0,14.0,24,0.00,,,0.00,704.000000,,2013-09-06 19:43:00,
2013-09-06 12:52:00,82.0,42.0,-100.00,WSW,249,5.0,14.0,24,0.00,,,0.00,704.000000,,2013-09-06 19:52:00,
2013-09-06 13:23:00,82.0,41.0,-100.00,SSW,198,7.0,15.0,23,0.00,,,0.00,848.000000,,2013-09-06 20:23:00,
2013-09-06 13:32:00,82.0,41.0,-100.00,SSW,198,7.0,15.0,23,0.00,,,0.00,848.000000,,2013-09-06 20:32:00,
2013-09-06 13:42:00,82.0,41.0,-100.00,SSW,198,7.0,15.0,23,0.00,,,0.00,848.000000,,2013-09-06 20:42:00,
2013-09-06 13:52:00,82.0,41.0,-100.00,SSW,198,7.0,15.0,23,0.00,,,0.00,848.000000,,2013-09-06 20:52:00,
2013-09-06 14:01:00,82.0,41.0,-100.00,SSW,198,7.0,15.0,23,0.00,,,0.00,848.000000,,2013-09-06 21:01:00,
2013-09-06 14:02:00,84.0,42.0,-100.00,SW,222,5.0,15.0,23,0.00,,,0.00,860.000000,,2013-09-06 21:02:00,
2013-09-06 14:43:00,84.0,42.0,-100.00,SW,222,5.0,15.0,23,0.00,,,0.00,860.000000,,2013-09-06 21:43:00,
2013-09-06 14:54:00,84.0,42.0,-100.00,SW,222,5.0,15.0,23,0.00,,,0.00,860.000000,,2013-09-06 21:54:00,
2013-09-06 15:02:00,84.0,41.0,-100.00,West,259,5.0,16.0,22,0.00,,,0.00,778.000000,,2013-09-06 22:02:00,
2013-09-06 15:44:00,84.0,41.0,-100.00,West,259,5.0,16.0,22,0.00,,,0.00,778.000000,,2013-09-06 22:44:00,
2013-09-06 15:53:00,84.0,41.0,-100.00,West,259,5.0,16.0,22,0.00,,,0.00,778.000000,,2013-09-06 22:53:00,
2013-09-06 16:43:00,82.0,41.0,-100.00,WNW,282,4.0,9.0,23,0.00,,,0.00,685.000000,,2013-09-06 23:43:00,
2013-09-06 16:52:00,82.0,41.0,-100.00,WNW,282,4.0,9.0,23,0.00,,,0.00,685.000000,,2013-09-06 23:52:00,
2013-09-06 17:01:00,82.0,41.0,-100.00,WNW,282,4.0,9.0,23,0.00,,,0.00,685.000000,,2013-09-07 00:01:00,
2013-09-06 17:02:00,81.0,40.0,-100.00,NW,309,4.0,10.0,23,0.00,,,0.00,543.000000,,2013-09-07 00:02:00,
2013-09-06 17:22:00,81.0,40.0,-100.00,NW,309,4.0,10.0,23,0.00,,,0.00,543.000000,,2013-09-07 00:22:00,
2013-09-06 17:32:00,81.0,40.0,-100.00,NW,309,4.0,10.0,23,0.00,,,0.00,543.000000,,2013-09-07 00:32:00,
2013-09-06 17:42:00,81.0,40.0,-100.00,NW,309,4.0,10.0,23,0.00,,,0.00,543.000000,,2013-09-07 00:42:00,
2013-09-06 17:52:00,81.0,40.0,-100.00,NW,309,4.0,10.0,23,0.00,,,0.00,543.000000,,2013-09-07 00:52:00,
2013-09-06 18:02:00,77.0,40.0,-100.00,NW,323,2.0,10.0,27,0.00,,,0.00,144.000000,,2013-09-07 01:02:00,
2013-09-06 18:42:00,77.0,40.0,-100.00,NW,323,2.0,10.0,27,0.00,,,0.00,144.000000,,2013-09-07 01:42:00,
2013-09-06 18:53:00,77.0,40.0,-100.00,NW,323,2.0,10.0,27,0.00,,,0.00,144.000000,,2013-09-07 01:53:00,
2013-09-06 19:02:00,72.0,40.0,-100.00,NW,326,1.0,8.0,31,0.00,,,0.00,63.000000,,2013-09-07 02:02:00,
2013-09-06 19:43:00,72.0,40.0,-100.00,NW,326,1.0,8.0,31,0.00,,,0.00,63.000000,,2013-09-07 02:43:00,
2013-09-06 19:52:00,72.0,40.0,-100.00,NW,326,1.0,8.0,31,0.00,,,0.00,63.000000,,2013-09-07 02:52:00,
2013-09-06 20:02:00,66.0,40.0,-100.00,East,84,1.0,4.0,38,0.00,,,0.00,5.000000,,2013-09-07 03:02:00,
2013-09-06 20:23:00,66.0,40.0,-100.00,East,84,1.0,4.0,38,0.00,,,0.00,5.000000,,2013-09-07 03:23:00,
2013-09-06 20:34:00,66.0,40.0,-100.00,East,84,1.0,4.0,38,0.00,,,0.00,5.000000,,2013-09-07 03:34:00,
2013-09-06 20:45:00,66.0,40.0,-100.00,East,84,1.0,4.0,38,0.00,,,0.00,5.000000,,2013-09-07 03:45:00,
2013-09-06 20:55:00,66.0,40.0,-100.00,East,84,1.0,4.0,38,0.00,,,0.00,5.000000,,2013-09-07 03:55:00,
2013-09-06 21:02:00,61.0,39.0,-100.00,East,88,1.0,3.0,44,0.00,,,0.00,0.000000,,2013-09-07 04:02:00,
2013-09-06 21:43:00,61.0,39.0,-100.00,East,88,1.0,3.0,44,0.00,,,0.00,0.000000,,2013-09-07 04:43:00,
2013-09-06 21:54:00,61.0,39.0,-100.00,East,88,1.0,3.0,44,0.00,,,0.00,0.000000,,2013-09-07 04:54:00,